Regional Weather Roundup
Issued by NWS

Home | Current Version | Previous Version | Graphics & Text | Print | Product List | Glossary Off
Versions: 1 2 3 4 5 6 7 8 9 10 11 12 13 14 15 16 17 18 19 20 21 22 23 24 25 26 27 28 29 30 31 32 33 34 35 36 37 38 39 40 41 42 43 44 45 46 47 48 49 50

007
ASUS45 KBOU 252007
RWRCO

WEATHER ROUNDUP FOR COLORADO
NATIONAL WEATHER SERVICE DENVER/BOULDER CO
200 PM MDT TUE APR 25 2017

NOTE: "FAIR" INDICATES FEW OR NO CLOUDS BELOW 12000 FEET WITH NO
SIGNIFICANT WEATHER AND/OR OBSTRUCTIONS TO VISIBILITY.

COZ001>005-013-030-031-252100-
...NORTHWEST COLORADO...

CITY           SKY/WX    TMP DP  RH WIND       PRES   REMARKS
CRAIG          TSTM      40  33  76 VRB3      29.72R
HAYDEN         PTSUNNY   34  28  80 N7        29.72R WCI  28
MEEKER         PTSUNNY   43  34  70 VRB5      29.73R
MOUNT WERNER   NOT AVBL
STEAMBOAT SPGS CLOUDY    33  31  94 CALM      29.73R
WALDEN           N/A     41  21  45 W9G17     29.68S
$$

COZ006>008-011-252100-
...WEST CENTRAL VALLEYS...

CITY           SKY/WX    TMP DP  RH WIND       PRES   REMARKS
GRAND JUNCTION PTSUNNY   52  30  43 SW16      29.69R
MONTROSE       CLOUDY    44  33  65 SW13G24   29.70R
EAGLE          PTSUNNY   46  28  49 S6        29.69F
RIFLE          LGT RAIN  46  33  60 NW18G26   29.73R
DELTA          FAIR      60  27  28 NW31G39   29.65R
NUCLA          FAIR      52  21  30 NW10G17   29.71F
$$

COZ017>023-064>068-252100-
...SOUTHWEST COLORADO...

CITY           SKY/WX    TMP DP  RH WIND       PRES   REMARKS
DURANGO        FAIR      54  22  28 W22G28    29.63F
CORTEZ         CLOUDY    47  32  56 N7        29.70R
PAGOSA SPRINGS PTSUNNY   40  37  90 SW5       29.68S
TELLURIDE      CLOUDY    37  25  64 W8G18     29.75R
WOLF CREEK PAS SNOW      23  23 100 S15G22    29.76S VSB 1/4 WCI  10
$$

COZ009-010-012-014-032>034-037-058>063-252100-
...CENTRAL COLORADO...

CITY           SKY/WX    TMP DP  RH WIND       PRES   REMARKS
ASPEN          FLURRIES  38  29  70 NW10      29.68R
BUENA VISTA    CLOUDY    47  17  30 NW16G25   29.61S
COPPER MTN     CLOUDY    28  18  64 MISG      29.73S
BERTHOUD PASS  CLOUDY    18   7  62 NW12G23   29.72R WCI   5
COTTONWOOD PAS PTSUNNY   41  23  48 NW10      29.65F
GUNNISON       LGT RAIN  36  29  75 NE9       29.69R
KREMMLING      PTSUNNY   48  25  40 NW8       29.69S
LEADVILLE      PTSUNNY   37  20  50 N10G20    29.67S
MONARCH PASS   LGT SNOW  25  19  80 W26G38    29.80S WCI   9
SALIDA         FAIR      53  21  29 W21G28    29.66S
SUNLIGHT       CLOUDY    23  21  93 MISG      29.78R
WILKERSON PASS CLOUDY    34  10  37 NW8       29.71S WCI  27
$$

COZ069>075-252100-
...SAN LUIS VALLEY/SANGRE DE CRISTO MOUNTAINS...

CITY           SKY/WX    TMP DP  RH WIND       PRES   REMARKS
ALAMOSA        CLOUDY    47  34  60 VRB6      29.61F
LA VETA PASS   CLOUDY    39  28  65 SW9G22    29.77F THUNDER
SAGUACHE       CLOUDY    41  32  70 S10       29.62S
$$

COZ035-036-038>040-252100-
...NORTHERN COLORADO FRONT RANGE...

CITY           SKY/WX    TMP DP  RH WIND       PRES   REMARKS
DENVER INTL AP PTSUNNY   54  32  43 E15G26    29.57S
DMNS CITY PARK   N/A     58  27  30 N7G13     29.57R
AURORA         PTSUNNY   54  33  45 NE14G20   29.58R
FRONT RANGE AP PTSUNNY   57  36  44 NE16G26   29.59S
ERIE MUNI ARPT CLOUDY    55  30  37 NW6       29.58R
BOULDER MUN AP CLOUDY    55  32  41 N7        29.58S
CENTENNIAL     PTSUNNY   56  24  29 NE9       29.57S
BROOMFIELD     TSTM      50  30  46 W5G17     29.59R
FORT COLLINS   FAIR      46  36  68 SE12      29.63R
LONGMONT       CLOUDY    57  29  35 N12G18    29.60S
$$

COZ041-046-047-076>085-087-088-252100-
...PIKES PEAK/PALMER DIVIDE AND SOUTHERN FOOTHILLS...

CITY           SKY/WX    TMP DP  RH WIND       PRES   REMARKS
COLO. SPRINGS  PTSUNNY   48  40  73 S10       29.59S
A. F. ACADEMY  CLOUDY    46  32  57 N14G28    29.60R
SCHRIEVER AFB  LGT RAIN  41  39  93 NE7       29.61
ELLICOTT       NOT AVBL
FALCON         CLOUDY    42  34  74 NE16G23   29.63R
FORT CARSON    RAIN      43  39  87 SE9       29.58F
LIMON          LGT RAIN  51  32  48 VRB5      29.57R
MONUMENT HILL  MIX PCPN  37  28  70 CALM      29.64R
TRINIDAD       CLOUDY    56  35  45 SE14      29.55F
$$

COZ042>045-048>051-090-091-252100-
...NORTHEAST COLORADO...

CITY           SKY/WX    TMP DP  RH WIND       PRES   REMARKS
GREELEY ARPT   NOT AVBL
AKRON          PTSUNNY   55  36  48 N10G20    29.57F
BURLINGTON     NOT AVBL
WRAY           NOT AVBL
STERLING       FAIR      59  32  36 NW8G18    29.54F
HOLYOKE        FAIR      59  46  63 NE16      29.57S
FORT MORGAN    FAIR      63  23  21 N14G25    29.57F
$$

COZ086-089-092>099-252100-
...SOUTHEAST COLORADO...

CITY           SKY/WX    TMP DP  RH WIND       PRES   REMARKS
PUEBLO         LGT RAIN  53  42  66 S13       29.55F
LA JUNTA       PTSUNNY   57  39  51 E9        29.55F
LAMAR          CLOUDY    58  40  51 E5        29.54F
SPRINGFIELD      N/A     55  41  59 NE10      29.56F
$$




USA.gov is the U.S. government's official web portal to all federal, state and local government web resources and services.